Atlanta Fulton, GA

6:52 PM EDT on June 27, 2017 (GMT -0400)
Fulton County-Brown

Weather History for KFTY - May, 2013

Change the Weather History Date:

Friday, May 24, 2013

  Actual Average Record
Temperature  
Mean Temperature 65 °F 72 °F  
Max Temperature 75 °F 83 °F 89 °F (2000)
Min Temperature 54 °F 61 °F 46 °F (2002)
Cooling Degree Days 0 7  
Month to date cooling degree days 77 106  
Year to date cooling degree days 112 145  
Growing Degree Days 17 (Base 50)    
Moisture  
Dew Point 50 °F    
Average Humidity 57    
Maximum Humidity 78    
Minimum Humidity 35    
Precipitation  
Precipitation 0.00 in 0.12 in 1.56 in (1973)
Month to date precipitation 5.11 2.94  
Year to date precipitation 10.25 20.66  
Sea Level Pressure  
Sea Level Pressure 30.12 in    
Wind  
Wind Speed 10 mph (NNW)    
Max Wind Speed 21 mph    
Max Gust Speed 32 mph    
Visibility 10 miles    
Events      
T = Trace of Precipitation, MM = Missing Value Source: NWS Daily Summary

Daily Weather History Graph

Daily Weather History Graph

Search for Another Location

Airport or City:

Trip Planner

Search our weather history database for the weather conditions in past years. The results will help you decide how hot, cold, wet, or windy it might be!

Date:

Astronomy

May. 24, 2013 Rise Set
Actual Time 6:31 AM EDT 8:38 PM EDT
Civil Twilight 6:03 AM EDT 9:06 PM EDT
Nautical Twilight 5:29 AM EDT 9:41 PM EDT
Astronomical Twilight 4:52 AM EDT 10:18 PM EDT
Moon 8:21 PM EDT (5/24) 6:00 AM EDT (5/24)
Length of Visible Light 15h 03m
Length of Day
14h 07m
Full, 100% of the Moon is Illuminated
May 24
Full
May 25
Full
May 31
Last Quarter
Jun 8
New
Jun 16
First Quarter

Hourly Weather History & Observations

Time (EDT) Temp. Dew Point Humidity Pressure Visibility Wind Dir Wind Speed Gust Speed Precip Events Conditions
12:53 AM 68.0 °F 57.0 °F 68% 30.01 in 10.0 mi NW 4.6 mph - N/A   Partly Cloudy
1:53 AM 66.9 °F 55.0 °F 66% 30.00 in 10.0 mi NNW 8.1 mph - N/A   Clear
2:53 AM 66.0 °F 55.0 °F 68% 30.00 in 10.0 mi NNW 6.9 mph - N/A   Clear
3:53 AM 64.0 °F 55.0 °F 73% 30.02 in 10.0 mi NW 8.1 mph - N/A   Clear
4:53 AM 62.1 °F 54.0 °F 75% 30.02 in 10.0 mi NW 5.8 mph - N/A   Clear
5:53 AM 62.1 °F 54.0 °F 75% 30.04 in 10.0 mi NNW 6.9 mph - N/A   Clear
6:53 AM 61.0 °F 53.1 °F 75% 30.06 in 10.0 mi NW 6.9 mph - N/A   Clear
7:53 AM 63.0 °F 54.0 °F 72% 30.08 in 10.0 mi NW 9.2 mph - N/A   Clear
8:53 AM 66.0 °F 55.0 °F 68% 30.10 in 10.0 mi NNW 13.8 mph 21.9 mph N/A   Clear
9:53 AM 66.0 °F 54.0 °F 65% 30.12 in 10.0 mi NNW 11.5 mph 23.0 mph N/A   Partly Cloudy
10:53 AM 68.0 °F 52.0 °F 56% 30.14 in 10.0 mi NW 16.1 mph 20.7 mph N/A   Partly Cloudy
11:53 AM 71.1 °F 52.0 °F 51% 30.15 in 10.0 mi NNW 18.4 mph 24.2 mph N/A   Clear
12:53 PM 72.0 °F 51.1 °F 48% 30.15 in 10.0 mi NW 17.3 mph 25.3 mph N/A   Clear
1:53 PM 73.0 °F 48.0 °F 41% 30.15 in 10.0 mi North 12.7 mph 20.7 mph N/A   Clear
2:53 PM 73.0 °F 46.9 °F 39% 30.15 in 10.0 mi NW 18.4 mph 25.3 mph N/A   Clear
3:53 PM 73.9 °F 46.0 °F 37% 30.15 in 10.0 mi North 12.7 mph 19.6 mph N/A   Clear
4:53 PM 73.9 °F 46.0 °F 37% 30.16 in 10.0 mi NNW 10.4 mph 21.9 mph N/A   Clear
5:53 PM 73.9 °F 45.0 °F 35% 30.16 in 10.0 mi NNW 11.5 mph 18.4 mph N/A   Clear
6:53 PM 72.0 °F 44.1 °F 37% 30.16 in 10.0 mi NNW 11.5 mph - N/A   Clear
7:53 PM 69.1 °F 43.0 °F 39% 30.17 in 10.0 mi NW 10.4 mph 19.6 mph N/A   Clear
8:53 PM 66.0 °F 42.1 °F 42% 30.18 in 10.0 mi Variable 4.6 mph - N/A   Clear
9:53 PM 64.0 °F 42.1 °F 45% 30.19 in 10.0 mi North 3.5 mph - N/A   Clear
10:53 PM 63.0 °F 42.1 °F 46% 30.20 in 10.0 mi NNE 4.6 mph - N/A   Clear
11:53 PM 60.1 °F 42.1 °F 51% 30.22 in 10.0 mi Calm Calm - N/A   Clear